Location: Rostock
(54.0884°N, 12.1234°E)
Time: 02:58:18
(UTC+01:00)

ISS - Pass Details

Date: 12 November 2017
Orbit: 402 x 407 km, 51.6° (Epoch: 23 November)

Event Time Altitude Azimuth Distance (km) Brightness Sun altitude
Exits shadow 05:52:20 25° 240° (WSW) 849 -2.6 -14.8°
Maximum altitude 05:53:24 32° 201° (SSW) 711 -2.7 -14.6°
Drops below altitude 10° 05:56:22 10° 136° (SE) 1,454 -0.2 -14.2°
Sets 05:58:33 0° 127° (SE) 2,311 1.3 -13.9°
